Regional Weather Roundup
Issued by NWS Charleston, WV

Home | Current Version | Previous Version | Graphics & Text | Print | Product List | Glossary On
Versions: 1 2 3 4 5 6 7 8 9 10 11 12 13 14 15 16 17 18 19 20 21 22 23 24 25 26 27 28 29 30 31 32 33 34 35 36 37 38 39 40 41 42 43 44 45 46 47 48 49 50
264
ASUS41 KRLX 061310
RWRRLX
West Virginia Regional Weather Roundup
National Weather Service Charleston WV
800 AM EST SAT FEB 06 2016

Note: "fair" indicates few or no clouds below 12,000 feet with no
significant weather and/or obstructions to visibility.

WVZ003-061400-
Northern Panhandle of West Virginia

CITY           SKY/WX    TMP DP  RH WIND       PRES   REMARKS
WHEELING         N/A     29  15  56 S8        30.30S
$$

WVZ009-061400-
Northwest West Virginia

CITY           SKY/WX    TMP DP  RH WIND       PRES   REMARKS
PARKERSBURG      N/A     30  16  56 S8        30.37R
$$

WVZ006-061400-
Western West Virginia

CITY           SKY/WX    TMP DP  RH WIND       PRES   REMARKS
HUNTINGTON       N/A     29  17  61 S6        30.36R
$$

WVZ015-061400-
West Central West Virginia

CITY           SKY/WX    TMP DP  RH WIND       PRES   REMARKS
CHARLESTON     MOCLDY    25  21  85 CALM      30.36S
$$

WVZ022-031-061400-
North Central West Virginia

CITY           SKY/WX    TMP DP  RH WIND       PRES   REMARKS
CLARKSBURG       N/A     28  16  60 S3        30.34F
MORGANTOWN       N/A     29  13  51 S3        30.34F
$$

WVZ025-035-042-045-061400-
Southern West Virginia

CITY           SKY/WX    TMP DP  RH WIND       PRES   REMARKS
BECKLEY          N/A     25  14  63 S6        30.32S
LOGAN            N/A     30  16  55 CALM      30.35R
BLUEFIELD        N/A     26   9  48 SW5       30.32S
LEWISBURG        N/A     22  19  87 CALM      30.35S
$$

WVZ047-061400-
Northern Mountains of West Virginia

CITY           SKY/WX    TMP DP  RH WIND       PRES   REMARKS
ELKINS           N/A     19  15  84 CALM      30.34F
$$

WVZ052-061400-
Eastern Panhandle of West Virginia

CITY           SKY/WX    TMP DP  RH WIND       PRES   REMARKS
MARTINSBURG      N/A     24  18  77 SW3       30.42R
PETERSBURG       N/A     22  19  91 CALM      30.41S
$$




USA.gov is the U.S. government's official web portal to all federal, state and local government web resources and services.